CAPE
0 0 0 0 0 0 0 0 0 0 1 3 2 0 0 0 0 0 0 0 0 0 0 0 0 0 0 0 0 0 0 0 0 0 0 0 0 0 0 0 0 0 0 0 0
0 0 0 0 0 0 0 0 0 0 0 0 0 0 0 0 0 0 0 0 0 0 0 0 0 0 0 0 0 0 0 0 0 0 0 0 0 0 0 0 0 0 0 0 0
0 0 0 0 0 0 0 0 0 0 0 0 0 0 0 0 0 0 0 0 0 0 0 0 0 0 0 0 0 0 0 0 0 0 0 0 0 0 0 0 0 0 0 0 0
0 0 0 0 0 0 0 0 0 0 0 0 0 0 0 0 0 0 0 0 0 0 0 0 0 0 0 0 0 0 0 0 0 0 0 0 0 0 0 0 0 0 0 0 0
0 0 0 0 1 0 0 0 0 0 0 0 0 0 0 0 0 0 0 0 0 0 0 0 0 0 0 0 0 0 0 0 0 0 0 0 0 0 0 0 0 0 0 0 0
1 1 0 2 0 0 1 0 0 0 0 0 0 0 0 0 0 0 0 0 0 0 0 0 0 0 0 0 0 0 0 0 0 0 0 0 0 0 0 0 0 0 0 0 0
1 2 2 1 0 0 0 0 0 0 0 0 0 2 0 0 0 0 0 0 0 0 0 0 0 0 0 0 0 0 0 0 0 0 0 0 0 0 0 0 0 0 0 0 0
1 2 2 1 0 0 0 0 0 0 0 0 1 4 0 0 0 0 0 0 0 0 0 0 0 0 0 0 0 0 0 0 0 0 0 0 0 0 0 0 0 0 0 0 0
5 2 2 1 0 0 0 0 0 0 0 0 7 2 0 0 0 0 0 0 0 0 0 0 0 0 0 0 0 0 0 0 0 0 0 0 0 0 0 0 0 0 0 0 0
4 2 2 1 0 0 0 0 0 0 0 0 15 1 0 0 0 0 0 0 0 0 0 0 0 0 0 0 0 0 0 0 0 0 0 0 0 0 0 0 0 0 0 0 0
3 2 3 1 2 0 0 0 0 0 7 0 0 0 0 0 0 0 0 0 0 0 0 0 0 0 0 0 0 0 0 0 0 0 0 0 0 0 0 0 0 0 0 0 0
2 3 3 3 0 0 0 0 0 0 0 0 0 0 0 0 0 0 0 0 0 0 0 0 0 0 0 0 0 0 0 0 0 0 0 0 0 0 0 0 0 0 0 0 0
2 4 5 2 2 3 0 0 0 0 0 0 0 0 0 0 0 0 0 0 0 0 0 0 0 0 0 0 0 0 0 0 0 0 0 0 0 0 0 0 0 0 0 0 0
3 5 4 4 0 0 0 0 0 0 0 0 0 0 0 0 0 0 0 0 0 0 0 0 0 0 0 0 0 0 0 0 0 0 0 0 0 0 0 0 0 0 0 0 0
7 3 1 0 0 0 0 0 0 2 0 0 0 0 0 0 0 0 0 0 0 0 0 0 0 0 0 0 0 0 0 0 0 0 0 0 0 0 0 0 0 0 0 0 0
5 5 1 0 0 0 0 13 35 0 0 0 0 0 0 0 0 0 0 0 0 0 0 0 0 0 0 0 0 0 0 0 0 0 0 0 0 0 0 0 0 0 0 0 0
1 0 0 0 0 0 2 13 0 0 0 0 0 0 0 0 0 0 0 0 0 0 0 0 0 0 0 0 0 0 0 0 0 0 0 0 0 0 0 0 0 0 0 0 0
0 0 2 0 0 0 16 3 0 0 0 0 0 0 0 0 0 1 0 0 0 0 0 0 0 0 0 0 0 0 0 0 0 0 0 0 0 0 0 0 0 0 0 0 0
0 0 0 0 0 1 3 0 0 0 0 0 0 0 0 0 0 0 0 0 0 0 0 0 0 0 0 0 0 0 0 0 0 0 0 0 0 0 0 0 0 0 0 0 0
0 0 0 0 6 14 0 0 0 0 0 0 0 0 0 0 0 0 0 0 0 0 0 0 0 0 0 0 0 0 0 0 0 0 0 0 0 0 0 0 0 0 0 0 2
0 0 0 6 3 3 0 0 0 0 0 0 0 0 0 0 0 0 0 0 0 0 0 0 0 0 0 0 0 0 0 0 0 0 1 0 0 0 4 0 0 3 4 3 1
1 0 14 8 11 25 0 2 0 0 0 0 0 0 0 0 0 0 0 0 0 0 0 0 0 0 0 0 0 0 0 0 0 0 0 0 0 0 0 0 1 3 2 3 2
4 1 0 1 4 2 4 0 0 0 0 0 0 0 0 0 0 0 0 0 0 0 0 0 0 0 0 0 0 0 0 0 0 0 0 0 0 0 0 0 1 0 1 2 2
0 0 2 1 0 0 0 0 0 0 0 0 0 0 0 0 0 0 0 0 0 0 0 0 0 0 0 0 0 0 0 0 0 0 0 0 0 0 0 0 0 1 3 0 3
0 0 0 0 0 0 0 0 0 0 0 0 0 0 0 0 0 0 0 0 0 0 0 0 0 0 0 0 0 0 0 0 0 0 0 0 0 0 0 0 2 3 2 2 4
0 0 0 0 0 0 0 0 0 0 0 0 0 0 0 0 0 0 0 0 0 0 0 0 0 0 0 0 0 0 0 0 0 0 0 0 0 0 0 2 1 2 3 4 6
0 0 0 0 0 0 0 0 0 0 0 0 0 0 0 0 0 0 0 0 0 0 0 0 0 0 0 0 0 0 0 0 0 0 0 0 0 0 0 0 1 2 2 3 3
CIN
0 0 0 0 0 0 0 0 0 0 0 -0 0 0 0 0 0 0 0 0 0 0 0 0 0 0 0 0 0 0 0 0 0 0 0 0 0 0 0 0 0 0 0 0 0
0 0 0 0 0 0 0 0 0 0 0 0 0 0 0 0 0 0 0 0 0 0 0 0 0 0 0 0 0 0 0 0 0 0 0 0 0 0 0 0 0 0 0 0 0
0 0 0 0 0 0 0 0 0 0 0 0 0 0 0 0 0 0 0 0 0 0 0 0 0 0 0 0 0 0 0 0 0 0 0 0 0 0 0 0 0 0 0 0 0
0 0 0 0 0 0 0 0 0 0 0 0 0 0 0 0 0 0 0 0 0 0 0 0 0 0 0 0 0 0 0 0 0 0 0 0 0 0 0 0 0 0 0 0 0
0 0 0 0 0 -0 0 0 0 0 0 0 0 0 0 0 0 0 0 0 0 0 0 0 0 0 0 0 0 0 0 0 0 0 0 0 0 0 0 0 0 0 0 0 0
0 0 0 0 0 -0 -0 0 0 0 0 0 0 0 0 0 0 0 0 0 0 0 0 0 0 0 0 0 0 0 0 0 0 0 0 0 0 0 0 0 0 0 0 0 0
0 0 0 0 0 -0 0 0 0 0 0 0 0 0 0 0 0 0 0 0 0 0 0 0 0 0 0 0 0 0 0 0 0 0 0 0 0 0 0 0 0 0 0 0 0
-13 0 0 0 0 0 -2 0 0 0 0 0 -0 -0 0 0 0 0 0 0 0 0 0 0 0 0 0 0 0 0 0 0 0 0 0 0 0 0 0 0 0 0 0 0 0
-10 0 0 0 0 0 0 0 0 0 0 0 -0 0 0 0 0 0 0 0 0 0 0 0 0 0 0 0 0 0 0 0 0 0 0 0 0 0 0 0 0 0 0 0 0
-11 0 0 0 0 0 0 0 0 -5 0 0 -0 -0 0 0 0 0 0 0 0 0 0 0 0 0 0 0 0 0 0 0 0 0 0 0 0 0 0 0 0 0 0 0 0
-5 0 0 0 0 0 0 0 0 0 -2 0 0 0 0 0 0 0 0 0 0 0 0 0 0 0 0 0 0 0 0 0 0 0 0 0 0 0 0 0 0 0 0 0 0
0 0 0 0 0 0 0 0 0 0 0 0 0 0 0 0 0 0 0 0 0 0 0 0 0 0 0 0 0 0 0 0 0 0 0 0 0 0 0 0 0 0 0 0 0
0 0 0 0 0 0 0 0 0 -1 0 0 0 0 0 0 0 0 0 0 0 0 0 0 0 0 0 0 0 0 0 0 0 0 0 0 0 0 0 0 0 0 0 0 0
0 0 0 0 0 0 0 0 0 0 0 0 0 0 0 0 0 0 0 0 0 0 0 0 0 0 0 0 0 0 0 0 0 0 0 0 0 0 0 0 0 0 0 0 0
0 0 0 0 0 0 0 0 0 -27 0 0 0 0 0 0 0 0 0 0 0 0 0 0 0 0 0 0 0 0 0 0 0 0 0 0 0 0 0 0 0 0 0 0 0
0 0 -0 0 0 -2 0 -29 -13 0 0 0 0 0 0 0 0 0 0 0 0 0 0 0 0 0 0 0 0 0 0 0 0 0 0 0 0 0 0 0 0 0 0 0 0
0 0 0 0 0 0 -13 -0 0 0 0 0 0 0 0 0 0 0 0 0 0 0 0 0 0 0 0 0 0 0 0 0 0 0 0 0 0 0 0 0 0 0 0 0 0
0 0 -0 0 0 0 -5 -1 0 0 0 0 0 0 0 0 0 -39 0 0 0 0 0 0 0 0 0 0 0 0 0 0 0 0 0 0 0 0 0 0 0 0 0 0 0
0 0 0 0 0 -16 -3 0 0 0 0 0 0 0 0 0 0 0 0 0 0 0 0 0 0 0 0 0 0 0 0 0 0 0 0 0 0 0 0 -8 0 0 0 0 0
0 0 0 0 -65 -8 0 0 0 0 0 0 0 0 0 0 0 0 0 0 0 0 0 0 0 0 0 0 0 0 0 0 0 0 0 0 0 0 0 0 0 0 0 0 0
0 0 0 -25 -15 -3 0 0 0 0 0 0 0 0 0 0 0 0 0 0 0 0 0 0 0 0 0 0 0 0 0 0 0 0 -4 0 0 0 -25 0 0 0 0 0 0
-24 0 -13 -11 -0 -0 0 -3 0 0 0 0 0 0 0 0 0 0 0 0 0 0 0 0 0 0 0 0 0 0 0 0 0 0 0 0 0 0 0 0 0 0 0 0 0
-9 -1 -0 -12 -5 -6 -5 0 0 0 0 0 0 0 0 0 0 0 0 0 0 0 0 0 0 0 0 0 0 0 0 0 0 0 0 0 0 0 0 0 0 0 0 0 0
0 0 -3 -2 0 -10 0 0 0 0 0 0 0 0 0 0 0 0 0 0 0 0 0 0 0 0 0 0 0 0 0 0 0 0 0 0 0 0 0 0 0 0 0 0 0
0 0 0 0 0 0 0 0 0 0 0 0 0 0 0 0 0 0 0 0 0 0 0 0 0 0 0 0 0 0 0 0 0 0 0 0 0 0 0 0 0 0 0 0 0
0 0 0 0 0 0 0 0 0 0 0 0 0 0 0 0 0 0 0 0 0 0 0 0 0 0 0 0 0 0 0 0 0 0 0 0 0 0 0 0 0 0 0 0 0
0 0 0 0 0 0 0 0 0 0 0 0 0 0 0 0 0 0 0 0 0 0 0 0 0 0 0 0 0 0 0 0 0 0 0 0 0 0 0 0 0 0 0 0 0
Wind_Speed
22 23 24 26 28 29 29 29 30 31 32 33 34 34 35 36 38 28 33 24 21 18 13 15 16 17 17 19 18 18 29 32 31 30 32 23 25 21 23 28 24 21 29 34 30
21 22 23 22 24 26 29 29 30 31 33 33 34 35 36 37 34 36 24 20 15 15 16 17 18 18 22 22 21 23 31 32 27 27 32 30 31 33 29 32 34 35 30 31 29
22 22 23 24 25 25 26 29 30 32 32 34 35 34 36 34 34 24 21 15 12 13 16 16 17 18 23 22 22 25 33 28 30 28 29 32 34 30 32 36 31 37 36 34 33
24 24 24 23 24 25 27 28 30 32 33 34 34 34 33 27 31 21 20 14 13 13 16 18 19 21 24 26 23 31 28 29 33 32 34 35 34 34 33 35 28 30 32 32 32
26 26 25 23 23 24 26 28 31 33 33 34 33 32 29 30 30 24 24 20 17 17 20 20 22 23 28 25 24 29 31 32 33 34 33 33 34 34 34 30 28 28 31 32 32
29 27 25 25 24 23 25 27 30 33 33 35 32 29 31 38 27 25 24 20 20 18 19 18 22 20 27 27 27 26 27 30 30 31 30 33 34 29 29 28 30 30 31 33 35
29 29 27 25 24 23 25 30 31 34 35 34 32 30 32 34 25 24 25 23 17 16 17 16 17 21 22 28 25 28 33 33 31 30 30 29 35 32 28 25 28 31 34 36 37
29 27 26 24 23 24 25 29 32 35 36 33 31 28 39 31 29 30 27 26 19 16 17 18 17 22 23 24 27 29 29 33 26 24 25 26 38 35 25 28 37 34 36 37 40
28 26 24 23 22 24 26 30 32 34 37 31 28 29 45 31 30 27 21 23 20 19 20 18 18 23 22 26 32 27 35 32 32 27 26 24 32 28 33 33 34 36 39 41 42
26 24 23 22 22 22 26 30 32 34 29 23 28 33 33 32 24 21 13 16 20 20 22 19 21 25 23 24 33 30 30 28 29 25 30 36 37 33 31 33 37 38 39 38 39
23 21 20 21 22 23 26 30 31 33 30 33 27 30 29 27 26 21 14 11 17 19 23 19 26 27 24 24 27 30 31 33 29 28 31 36 38 37 35 34 34 35 35 38 40
20 20 19 18 19 19 21 32 31 28 40 37 40 42 44 29 29 23 10 16 18 23 20 23 30 24 23 24 26 27 29 30 27 24 24 32 38 37 32 29 30 31 33 36 40
17 15 14 13 14 18 24 25 20 23 39 46 38 39 36 32 33 27 19 19 21 22 21 25 23 18 24 26 27 26 25 26 27 27 28 30 34 26 29 25 26 28 32 35 40
12 11 9 8 17 19 24 19 19 22 39 42 37 36 30 27 38 30 24 24 26 27 25 29 29 30 25 25 21 28 21 23 26 25 28 25 35 29 22 30 29 32 36 37 42
7 6 6 12 17 21 19 13 8 14 41 22 24 21 18 26 24 29 18 22 27 25 22 26 24 24 26 23 17 23 23 23 24 23 24 24 24 23 32 30 30 34 36 39 40
2 5 6 14 18 20 16 6 8 22 33 22 17 18 18 22 24 16 18 17 19 23 23 23 18 18 17 16 17 19 21 22 23 22 29 21 22 30 31 29 30 32 33 36 38
4 8 10 12 16 15 7 5 17 24 25 21 19 15 15 17 19 15 19 20 22 25 26 23 24 22 19 20 18 17 19 26 27 25 27 18 25 29 30 27 28 30 30 35 40
9 10 10 9 12 11 9 15 25 22 22 22 18 11 16 13 17 15 15 21 19 19 19 21 22 18 18 17 18 18 19 22 30 27 28 24 29 29 24 22 23 26 31 35 41
7 12 12 10 8 8 10 19 20 22 22 22 15 9 14 12 11 12 16 17 17 18 19 18 19 17 17 17 18 18 21 21 28 27 34 29 29 30 22 22 22 28 33 38 42
11 14 13 7 5 7 16 21 20 21 22 18 15 16 14 11 11 14 15 16 16 17 16 18 21 18 17 17 18 18 20 22 23 32 34 30 29 27 28 26 27 32 32 37 40
10 13 12 6 9 11 17 18 21 19 16 16 14 17 12 13 14 16 18 17 16 17 15 18 21 22 19 20 24 25 23 21 22 24 32 36 29 25 25 28 28 29 33 37 37
10 16 8 4 10 15 16 13 14 16 15 16 13 14 13 13 15 16 18 18 18 16 18 18 18 22 22 26 22 20 22 23 28 28 26 28 30 21 25 27 28 29 33 34 33
10 11 8 10 16 14 16 13 14 16 15 15 16 13 12 13 14 12 15 17 16 16 17 17 20 22 21 18 17 18 19 20 25 25 31 34 32 21 25 28 29 29 30 31 33
12 11 10 12 15 15 11 4 8 11 13 11 12 12 13 15 15 15 16 17 17 15 16 17 18 20 24 23 23 27 28 27 26 31 34 35 40 41 35 32 30 29 29 27 30
11 13 10 12 18 12 10 8 10 14 15 13 13 14 14 15 16 16 15 16 17 18 18 19 21 22 24 26 27 29 30 31 30 32 39 43 39 35 33 30 29 27 27 27 27
12 12 9 11 8 6 10 9 9 10 12 15 12 12 13 13 15 15 15 16 18 19 20 21 24 24 28 26 27 32 31 31 32 35 38 38 39 34 25 23 25 25 25 26 25
13 12 11 9 8 11 12 10 6 8 13 10 6 8 10 12 15 17 17 18 17 18 19 20 20 24 27 23 29 35 29 27 32 34 37 34 31 22 22 23 24 23 22 22 24
Wind_Direction
304 306 308 309 310 312 315 317 317 318 319 319 318 319 318 316 314 323 311 315 318 315 318 321 317 313 311 303 304 307 293 294 297 300 302 314 309 311 313 307 310 309 307 306 314
297 301 303 306 309 311 312 313 314 315 316 316 317 316 316 315 316 311 320 323 318 325 314 307 305 307 302 301 298 291 291 295 299 301 301 304 304 304 306 302 302 301 304 305 311
291 293 296 300 304 306 309 310 311 312 313 314 314 314 314 316 312 314 324 336 341 333 327 318 314 307 297 298 295 295 289 297 300 303 304 303 301 305 302 298 303 299 299 301 303
286 288 291 293 297 302 304 307 308 310 311 311 312 312 312 316 304 318 322 333 332 330 324 315 310 303 299 294 295 291 297 297 298 299 299 299 301 299 299 299 305 305 300 300 299
279 283 285 288 294 299 303 304 305 307 308 309 310 310 310 300 296 306 307 309 312 312 305 305 301 299 295 301 301 292 296 296 298 300 301 301 298 299 299 305 307 305 302 300 297
277 277 278 284 289 296 301 304 305 306 306 305 306 309 301 293 306 305 305 305 297 296 298 298 300 301 300 298 296 303 304 302 303 303 303 300 299 302 305 310 308 307 304 300 299
275 274 274 278 284 292 298 301 303 303 303 303 302 300 295 290 304 302 306 299 297 297 299 299 294 301 307 301 302 302 299 301 301 303 301 306 299 300 309 314 312 310 307 303 298
271 272 271 272 279 288 296 302 300 300 299 300 299 297 290 301 297 289 286 288 293 292 296 299 302 298 299 303 304 303 304 301 309 310 309 308 297 304 313 313 307 309 308 305 299
268 268 265 268 273 284 291 300 300 300 295 293 295 293 291 303 293 288 277 275 278 283 294 299 298 292 297 295 296 301 294 299 304 309 308 308 303 310 311 310 309 309 307 304 301
266 266 263 267 274 281 289 292 299 293 293 293 289 291 290 292 301 301 292 272 277 277 283 287 288 285 289 287 286 295 299 304 304 311 308 304 302 307 312 311 308 309 309 308 308
260 257 260 266 273 280 289 293 289 290 286 274 282 283 292 299 296 293 296 273 278 278 271 276 276 276 280 285 288 296 300 300 304 308 308 304 303 304 309 310 310 312 313 313 312
253 252 259 264 270 278 288 286 288 290 284 279 274 274 274 293 287 284 279 272 269 271 277 280 274 277 288 290 291 295 299 301 308 311 313 309 304 305 310 313 317 318 319 319 317
250 248 255 265 276 281 285 285 296 299 282 278 277 274 271 264 269 272 266 267 270 270 268 272 295 282 279 288 291 294 297 302 305 312 311 311 306 311 316 322 323 324 325 325 324
238 242 252 262 284 287 288 289 288 305 290 283 275 279 268 267 266 258 269 263 272 270 273 278 277 282 288 287 288 291 299 302 305 310 307 316 304 312 320 322 323 324 329 330 328
236 237 248 284 295 285 297 296 304 316 286 298 286 294 277 252 276 255 255 263 263 270 271 280 287 285 278 279 285 294 301 304 304 303 308 308 307 310 317 321 326 329 335 336 335
272 268 285 288 293 286 299 310 320 295 288 302 299 286 273 258 267 274 248 267 277 270 279 272 297 299 297 293 290 302 303 305 304 305 300 301 302 307 317 323 328 335 340 344 341
313 291 308 298 287 293 290 279 292 286 301 302 299 291 275 257 265 247 242 255 266 269 270 280 283 290 297 292 298 293 297 297 298 297 298 308 304 305 318 328 332 337 344 347 339
313 304 316 301 291 299 280 279 279 297 287 310 299 281 278 258 268 249 244 256 275 278 278 275 281 291 299 295 294 294 291 291 293 296 299 307 302 312 328 334 339 345 347 346 333
322 314 312 297 291 295 271 270 283 291 300 303 302 261 279 271 264 257 262 264 277 282 274 280 284 298 306 302 300 296 292 300 295 297 297 301 306 314 326 331 341 342 345 338 328
313 303 299 300 302 287 270 276 281 299 306 298 291 279 270 272 262 264 267 275 277 287 288 284 284 298 299 300 312 306 305 297 302 295 294 301 308 312 324 330 337 338 343 331 327
312 307 289 288 302 277 275 282 294 296 302 289 283 277 281 269 269 264 268 275 285 288 298 291 285 288 297 298 296 299 300 304 304 300 296 297 304 326 327 330 336 340 337 326 324
299 296 284 281 278 278 279 287 310 292 288 292 285 291 281 281 276 273 272 283 290 292 291 296 297 291 297 301 305 304 305 303 293 294 299 302 300 324 331 337 336 336 322 320 323
293 305 292 266 279 276 285 303 295 280 289 279 283 292 288 282 284 290 286 291 293 296 298 306 302 298 305 310 313 312 314 315 309 303 292 291 294 317 329 330 328 327 316 316 318
283 285 283 272 289 279 276 320 298 289 284 297 288 286 282 286 290 282 284 294 305 314 317 316 308 304 297 305 306 301 305 307 305 298 296 289 294 295 308 314 316 310 307 319 316
294 281 276 262 268 277 288 303 283 279 281 291 290 287 279 279 283 287 292 298 307 311 313 314 307 306 304 305 306 304 304 306 303 300 296 297 292 296 298 300 298 294 302 319 315
284 280 279 284 282 278 285 288 286 289 285 284 292 289 289 289 293 291 299 303 306 310 313 317 307 312 308 310 309 305 306 306 304 304 299 294 291 293 295 290 284 287 296 310 314
279 277 277 278 266 259 272 274 289 297 298 295 311 306 307 302 298 300 303 308 314 316 319 320 320 318 312 321 316 307 315 316 314 313 312 296 295 285 279 273 271 285 299 314 320